CTLRVL-WX Weather Reports


time (UTC)temp
C
wind
direction
speed
KPH
gust
KPH
rain 1hr
cm
rain 24hr
cm
rain mn
cm
humidity
%
barometer
mb
20260503031602 3 199 8.0 0.0 0.00 0.00 0.00 69 991.2
20260503030134 3 204 6.4 0.0 0.00 0.00 0.00 69 991.2
20260503024601 3 202 6.4 0.0 0.00 0.00 0.00 64 992.1
20260503023121 3 193 6.4 0.0 0.00 0.00 0.00 69 991.5
20260503021602 3 210 6.4 0.0 0.00 0.00 0.00 69 991.5
20260503020131 3 218 8.0 0.0 0.00 0.00 0.00 69 991.5
20260503014601 4 228 8.0 0.0 0.00 0.00 0.00 58 991.1
20260503013120 4 234 8.0 0.0 0.00 0.00 0.00 58 991.1
20260503011601 5 230 8.0 0.0 0.00 0.00 0.00 58 991.1
20260503010131 5 240 8.0 0.0 0.00 0.00 0.00 58 991.1
20260503004601 5 247 8.0 0.0 0.00 0.00 0.00 46 991.9
20260503003115 6 241 8.0 0.0 0.00 0.00 0.00 46 992.0
20260503001602 6 247 8.0 0.0 0.00 0.00 0.00 46 992.0
20260503000136 7 257 6.4 0.0 0.00 0.00 0.00 46 992.0
20260502234603 7 274 8.0 0.0 0.00 0.00 0.00 38 992.0
20260502233115 8 279 9.7 0.0 0.00 0.00 0.00 38 992.0
20260502231603 8 280 11.3 0.0 0.00 0.00 0.00 38 992.0
20260502230129 8 280 12.9 0.0 0.00 0.00 0.00 38 992.0
20260502224602 8 281 14.5 0.0 0.00 0.00 0.00 37 992.3
20260502223121 8 279 14.5 0.0 0.00 0.00 0.00 37 993.0
20260502221603 8 278 16.1 0.0 0.00 0.00 0.00 37 993.0
20260502220130 8 277 17.7 0.0 0.00 0.00 0.00 37 993.0
20260502214603 8 278 17.7 0.0 0.00 0.00 0.00 37 993.2
20260502213121 8 278 17.7 0.0 0.00 0.00 0.00 40 992.9
20260502211603 8 276 17.7 0.0 0.00 0.00 0.00 40 992.8
20260502210132 8 275 17.7 0.0 0.00 0.00 0.00 40 992.8
20260502204602 8 271 16.1 0.0 0.00 0.00 0.00 40 993.3
20260502203121 8 270 16.1 0.0 0.00 0.00 0.00 38 993.7
20260502201602 8 271 16.1 0.0 0.00 0.00 0.00 38 993.7
20260502200129 8 272 17.7 0.0 0.00 0.00 0.00 38 993.7
20260502194603 8 274 17.7 0.0 0.00 0.00 0.00 32 994.0
20260502193116 8 275 19.3 0.0 0.00 0.00 0.00 32 994.0
20260502191603 8 279 19.3 0.0 0.00 0.00 0.00 32 994.0
20260502190130 8 281 17.7 0.0 0.00 0.00 0.00 32 994.0
20260502184603 8 280 19.3 0.0 0.00 0.00 0.00 41 993.9
20260502183122 8 286 17.7 0.0 0.00 0.00 0.00 42 993.9
20260502181602 8 286 17.7 0.0 0.00 0.00 0.00 42 993.9
20260502180136 7 284 17.7 0.0 0.00 0.00 0.00 42 993.9
20260502170126 7 279 14.5 0.0 0.00 0.00 0.00 43 994.4
20260502163122 7 279 14.5 0.0 0.00 0.00 0.00 41 993.3
20260502161602 7 282 12.9 0.0 0.00 0.00 0.00 41 993.3
20260502160133 7 286 11.3 0.0 0.00 0.00 0.00 41 993.3
20260502151603 6 298 11.3 0.0 0.00 0.00 0.00 53 993.6
20260502150135 5 297 11.3 0.0 0.00 0.00 0.00 53 993.6
20260502130131 2 331 6.4 0.0 0.00 0.00 0.00 75 994.0
20260502123120 1 320 4.8 0.0 0.00 0.00 0.00 80 994.2
20260502121603 1 320 4.8 0.0 0.00 0.00 0.00 80 994.2
20260502120144 0 310 4.8 0.0 0.00 0.00 0.00 80 994.2
20260502114603 0 300 4.8 0.0 0.00 0.00 0.00 86 994.1
20260502113124 0 278 1.6 0.0 0.00 0.00 0.00 88 994.1
20260502111602 0 261 1.6 0.0 0.00 0.00 0.00 88 993.9
20260502110131 0 281 1.6 0.0 0.00 0.00 0.00 88 993.9
20260502104602 0 252 0.0 0.0 0.00 0.00 0.00 88 993.7
20260502103121 0 270 1.6 0.0 0.00 0.00 0.00 89 993.9
20260502101602 0 270 1.6 0.0 0.00 0.00 0.00 89 993.9
20260502100132 0 286 1.6 0.0 0.00 0.00 0.00 89 993.9
20260502090131 0 279 3.2 0.0 0.00 0.00 0.00 88 993.5
20260502070132 0 304 4.8 0.0 0.00 0.00 0.00 83 992.7
20260502064602 0 302 4.8 0.0 0.00 0.00 0.00 76 993.8
20260502063122 0 283 4.8 0.0 0.00 0.00 0.00 77 993.7
20260502061602 0 277 4.8 0.0 0.00 0.00 0.00 77 993.7
20260502060147 0 279 6.4 0.0 0.00 0.00 0.00 77 993.7
20260502054602 0 276 6.4 0.0 0.00 0.00 0.00 74 993.1
20260502053121 0 276 6.4 0.0 0.00 0.00 0.00 79 993.5
20260502051601 0 276 6.4 0.0 0.00 0.00 0.00 79 993.5
20260502050133 0 280 4.8 0.0 0.00 0.00 0.00 79 993.5
20260502044603 0 286 4.8 0.0 0.00 0.00 0.00 74 993.0
20260502043120 1 313 4.8 0.0 0.00 0.00 0.00 79 993.1
20260502041602 0 317 4.8 0.0 0.00 0.00 0.00 79 993.0
20260502040133 1 313 6.4 0.0 0.00 0.00 0.00 79 993.0
20260502034601 1 313 6.4 0.0 0.00 0.00 0.00 70 992.6
20260502033121 1 317 6.4 0.0 0.00 0.00 0.00 75 992.0